CDT,Max TemperatureF,Mean TemperatureF,Min TemperatureF,Max Dew PointF,MeanDew PointF,Min DewpointF,Max Humidity, Mean Humidity, Min Humidity, Max Sea Level PressureIn, Mean Sea Level PressureIn, Min Sea Level PressureIn, Max VisibilityMiles, Mean VisibilityMiles, Min VisibilityMiles, Max Wind SpeedMPH, Mean Wind SpeedMPH, Max Gust SpeedMPH,PrecipitationIn, CloudCover, Events, WindDirDegrees
2013-3-1,35,32,30,32,29,27,100,90,86,30.17,30.11,30.06,10,4,2,12,6,17,0.00,8,Snow,309
2013-3-2,33,30,26,27,23,19,93,76,56,30.24,30.20,30.16,10,9,3,14,9,20,0.00,7,Snow,319
2013-3-3,39,30,21,28,22,18,93,69,42,30.21,30.14,30.06,10,10,10,6,3,,0.00,3,,181
2013-3-4,51,43,35,45,33,27,82,68,50,30.07,29.89,29.79,10,10,10,22,9,29,0.00,6,,124
2013-3-5,44,38,32,37,31,23,93,80,65,30.10,29.92,29.78,10,9,0,22,9,39,0.09,8,Rain-Snow,301
2013-3-6,39,34,26,28,26,25,93,73,60,30.35,30.29,30.10,10,10,10,20,12,31,0.00,6,,315
2013-3-7,44,35,26,32,28,25,93,78,53,30.42,30.37,30.33,10,9,2,10,3,,0.00,0,,93
2013-3-8,51,40,28,36,31,27,93,72,41,30.44,30.35,30.22,10,10,10,15,7,20,0.00,0,,112
2013-3-9,66,54,42,39,34,30,76,52,30,30.22,30.03,29.85,10,10,10,24,11,32,0.00,3,,139
2013-3-10,62,55,48,54,46,34,94,72,34,29.84,29.76,29.68,10,10,1,25,14,33,0.43,7,Rain-Thunderstorm,179
2013-3-11,48,42,35,46,34,27,93,83,70,30.00,29.84,29.71,10,9,2,20,10,25,0.00,8,,264
2013-3-12,50,40,30,28,26,21,87,64,32,30.20,30.09,30.00,10,10,10,18,8,26,0.00,2,,276
2013-3-13,41,34,28,27,19,16,86,56,36,30.42,30.34,30.20,10,10,7,15,11,23,0.00,3,Snow,307
2013-3-14,48,36,24,34,27,19,93,70,49,30.41,30.28,30.11,10,10,7,17,5,22,0.00,2,Rain,157
2013-3-15,71,50,30,54,40,28,93,66,33,30.10,29.90,29.69,10,10,5,13,5,18,0.00,0,,156
2013-3-16,66,52,39,50,42,36,87,72,49,30.04,29.88,29.67,10,9,4,18,10,24,0.02,4,Rain,329
2013-3-17,37,35,33,37,34,30,100,93,87,30.09,29.98,29.70,10,6,2,23,10,32,2.95,8,Rain-Snow-Thunderstorm,54
2013-3-18,48,42,37,39,37,27,100,84,57,30.01,29.79,29.67,10,9,2,16,7,25,0.05,6,Rain-Thunderstorm,286
2013-3-19,48,39,30,25,18,10,75,45,23,30.22,30.16,30.01,10,10,5,14,7,22,0.00,1,,284
2013-3-20,37,32,26,30,20,10,93,61,38,30.26,30.18,30.11,10,10,10,20,6,28,0.00,2,,309
2013-3-21,37,29,21,23,17,12,80,59,41,30.13,30.07,30.00,10,10,10,10,3,,0.00,1,,29
2013-3-22,42,37,32,28,24,21,75,60,42,30.05,30.02,29.99,10,10,10,10,6,,0.00,8,,103
2013-3-23,55,46,37,37,31,25,76,58,41,30.04,29.95,29.81,10,10,10,14,6,20,0.00,6,Rain,57
2013-3-24,42,37,32,39,33,30,93,90,81,29.81,29.65,29.49,10,4,0,29,12,34,0.24,8,Rain-Snow-Thunderstorm,346
2013-3-25,35,32,30,30,29,27,93,84,75,30.19,29.98,29.79,10,8,1,18,13,24,0.00,8,Snow,291
2013-3-26,39,34,30,28,26,25,87,72,56,30.36,30.29,30.19,10,10,10,13,6,17,0.00,5,,294
2013-3-27,48,37,26,36,28,23,93,71,46,30.41,30.36,30.30,10,10,10,7,1,,0.00,1,,43
2013-3-28,57,46,35,43,34,28,81,64,44,30.37,30.32,30.25,10,10,10,13,5,16,0.00,5,Rain,105
2013-3-29,57,50,42,48,44,39,93,83,67,30.29,30.23,30.19,10,10,5,10,6,,0.10,4,Rain,112
2013-3-30,55,47,39,46,43,37,100,90,72,30.22,30.09,29.93,10,4,0,10,3,,0.06,7,Fog-Rain,143
2013-3-31,66,57,48,52,45,36,100,72,32,29.94,29.90,29.86,10,7,2,9,2,,0.00,5,Rain,279